FENGYUN 1C DEB

Satellite information

Favourite Embed

Satellite Type and Status

DEBRISIN ORBIT

Key statistics

Satellite FENGYUN 1C DEB at a glance.

Uptime

9555

Days in orbit

Revolutions

≈ 14.2

Per day

Orbit

SSO

Sun Synchronous Orbit

Inclination

98.9

Latest

Satellite identification and parameters

Extended collection of information and parameters for FENGYUN 1C DEB.

Object identification

Identified? True

Debris? True

Object name: FENGYUN 1C DEB

International designator: 1999-025AZW

Object number (NORAD): 30932

Object ID (CCSDS): 30932

Country: PEOPLES REPUBLIC OF CHINA (PRC)

Current information (Y/N): Y

RCS size: SMALL

Orbital parameters

Period: 101.084 minutes

Inclination: 98.9029 deg

SMA: 7188.133 km

Apoapsis: 855.495 km

Periapsis: 764.502 km

RAAN: 117.7209 deg

Eccentricy: 0.0063294

Argument of periapsis: 32.4304 deg

Mean anomaly: 328.074 deg

Mean motion: 14.24552912 rev/day

Mean motion (dot): 0.00004322 rev/day2

B* drag term: 0.0018427 1/REarth

Two-line elements (TLE)

Creation date: July 6, 2025, 6:05 p.m.

Reference frame: TEME

Reference center: EARTH

Epoch: July 6, 2025, 5:58 a.m. UTC

TLE line 0: 0 FENGYUN 1C DEB

TLE line 1: 1 30932U 99025AZW 25187.24898587 .00004322 00000-0 18427-2 0 9991

TLE line 2: 2 30932 98.9029 117.7209 0063294 32.4304 328.0740 14.24552912941220

Live tracking on map

Real-time ground track for satellite FENGYUN 1C DEB.

In-orbit conjunctions

A list of the most updated potential collisions computed for object FENGYUN 1C DEB.

Target Orbit TCA Probability of collision Miss distance Type
COSMOS 2251 DEB LEO 2024-09-28 01:31:02 0.0001469368 277.0 (m) DEBRIS
COSMOS 1375 DEB LEO 2024-09-26 15:52:30 0.0004379409 973.0 (m) DEBRIS
CZ-6A DEB SSO 2024-09-26 15:05:48 0.0002056786 878.0 (m) DEBRIS

Associated space launch

Chinese polar orbiting meteorological satellite

FENGYUN 1C DEB was lifted into orbit during the mission ‘Long March 4B | Feng Yun 1C’, on board a Long March 4B space rocket.

The launch took place on May 10, 1999, 1:33 a.m. from Launch Complex 7.

For more information about the launch, click the button.

Launch to space Long March 4B | Feng Yun 1C
Long March 4B | Feng Yun 1C

Agency: N/A

Status: Launch Successful

Launch date: May 10, 1999, 1:33 a.m. UTC

Rocket: Long March 4B

Launch pad: Launch Complex 7

Location: Taiyuan Satellite Launch Center, People's Republic of China

...

Latest news about this satellite

There are no fresh news available about this satellite. Check back as we update our databases every day.


Newsletter sign-up

Weekly statistics, charts and insights to help you stay on top of the space industry.